2023/01/24 00:00:00, 4.6,-0.4
2023/01/24 00:10:00, 4.6,-0.7
2023/01/24 00:20:00, 4.6,-1.2
2023/01/24 00:30:00, 4.6,-1.0
2023/01/24 00:40:00, 4.6,-0.7
2023/01/24 00:50:00, 4.6,-1.1
2023/01/24 01:00:00, 4.6,-1.0
2023/01/24 01:10:00, 4.6,-1.2
2023/01/24 01:20:00, 4.6,-1.0
2023/01/24 01:30:00, 4.6,-1.3
2023/01/24 01:40:00, 4.6,-1.4
2023/01/24 01:50:00, 4.6,-1.4
2023/01/24 02:00:00, 4.6,-1.0
2023/01/24 02:10:00, 4.6,-1.0
2023/01/24 02:20:00, 4.6,-0.9
2023/01/24 02:30:00, 4.6,-0.8
2023/01/24 02:40:00, 4.6,-0.6
2023/01/24 02:50:00, 4.6,-1.0
2023/01/24 03:00:00, 4.6,-1.3
2023/01/24 03:10:00, 4.6,-1.2
2023/01/24 03:20:00, 4.7,-1.4
2023/01/24 03:30:00, 4.7,-1.4
2023/01/24 03:40:00, 4.6,-1.2
2023/01/24 03:50:00, 4.7,-0.8
2023/01/24 04:00:00, 4.7,-1.1
2023/01/24 04:10:00, 4.6,-0.9
2023/01/24 04:20:00, 4.6,-0.9
2023/01/24 04:30:00, 4.6,-0.7
2023/01/24 04:40:00, 4.6,-0.4
2023/01/24 04:50:00, 4.8,-0.3
2023/01/24 05:00:00, 5.6,-0.8
2023/01/24 05:10:00, 7.0,-0.9
2023/01/24 05:20:00, 8.2,-0.7
2023/01/24 05:30:00, 8.6,-0.5
2023/01/24 05:40:00, 8.9,-0.3
2023/01/24 05:50:00, 9.1,-0.2
2023/01/24 06:00:00, 9.2,-0.6
2023/01/24 06:10:00, 9.2,-1.2
2023/01/24 06:20:00, 9.2,-1.1
2023/01/24 06:30:00, 9.2,-1.1
2023/01/24 06:40:00, 9.2,-1.0
2023/01/24 06:50:00, 9.2,-1.4
2023/01/24 07:00:00, 9.2,-1.3
2023/01/24 07:10:00, 9.2,-1.9
2023/01/24 07:20:00, 9.1,-1.7
2023/01/24 07:30:00, 9.5,-1.7
2023/01/24 07:40:00,10.5,-1.6
2023/01/24 07:50:00,11.0,-1.6
2023/01/24 08:00:00,11.0,-1.4
2023/01/24 08:10:00,11.1,-1.4
2023/01/24 08:20:00,12.0,-1.3
2023/01/24 08:30:00,12.9,-1.7
2023/01/24 08:40:00,14.3,-1.4
2023/01/24 08:50:00,15.5,-1.9
2023/01/24 09:00:00,16.3,-1.5
2023/01/24 09:10:00,16.9,-1.8
2023/01/24 09:20:00,17.6,-2.0
2023/01/24 09:30:00,18.6,-2.0
2023/01/24 09:40:00,19.7,-2.2
2023/01/24 09:50:00,20.7,-2.4
2023/01/24 10:00:00,21.5,-2.3
2023/01/24 10:10:00,22.5,-2.3
2023/01/24 10:20:00,23.1,-2.4
2023/01/24 10:30:00,23.3,-2.6
2023/01/24 10:40:00,23.0,-2.1
2023/01/24 10:50:00,22.8,-3.1
2023/01/24 11:00:00,22.5,-2.6
2023/01/24 11:10:00,22.4,-3.1
2023/01/24 11:20:00,22.6,-3.9
2023/01/24 11:30:00,23.3,-3.9
2023/01/24 11:40:00,23.7,-3.0
2023/01/24 11:50:00,23.7,-2.9
2023/01/24 12:00:00,23.6,-3.6
2023/01/24 12:10:00,23.7,-4.0
2023/01/24 12:20:00,24.0,-4.3
2023/01/24 12:30:00,23.9,-4.7
2023/01/24 12:40:00,23.9,-5.5
2023/01/24 12:50:00,24.1,-5.4
2023/01/24 13:00:00,24.4,-5.1
2023/01/24 13:10:00,24.7,-5.3
2023/01/24 13:20:00,24.7,-6.0
2023/01/24 13:30:00,25.0,-6.0
2023/01/24 13:40:00,25.3,-5.6
2023/01/24 13:50:00,25.7,-5.9
2023/01/24 14:00:00,26.0,-5.9
2023/01/24 14:10:00,26.2,-4.9
2023/01/24 14:20:00,26.2,-4.2
2023/01/24 14:30:00,25.9,-4.6
2023/01/24 14:40:00,25.7,-5.8
2023/01/24 14:50:00,26.6,-6.7
2023/01/24 15:00:00,27.8,-6.5
2023/01/24 15:10:00,29.0,-6.7
2023/01/24 15:20:00,30.4,-6.8
2023/01/24 15:30:00,31.4,-6.7
2023/01/24 15:40:00,32.3,-7.1
2023/01/24 15:50:00,33.0,-7.3
2023/01/24 16:00:00,33.6,-7.2
2023/01/24 16:10:00,33.8,-7.6
2023/01/24 16:20:00,34.1,-7.5
2023/01/24 16:30:00,34.9,-7.6
2023/01/24 16:40:00,35.7,-8.1
2023/01/24 16:50:00,36.4,-8.0
2023/01/24 17:00:00,36.9,-7.8
2023/01/24 17:10:00,36.9,-7.7
2023/01/24 17:20:00,36.7,-8.1
2023/01/24 17:30:00,36.6,-7.9
2023/01/24 17:40:00,37.1,-7.8
2023/01/24 17:50:00,37.9,-8.3
2023/01/24 18:00:00,38.9,-8.1
2023/01/24 18:10:00,39.9,-8.1
2023/01/24 18:20:00,41.4,-8.4
2023/01/24 18:30:00,43.4,-8.4
2023/01/24 18:40:00,43.9,-8.7
2023/01/24 18:50:00,44.4,-8.4
2023/01/24 19:00:00,44.5,-8.6
2023/01/24 19:10:00,44.4,-8.8
2023/01/24 19:20:00,44.7,-8.2
2023/01/24 19:30:00,45.5,-8.4
2023/01/24 19:40:00,45.9,-8.7
2023/01/24 19:50:00,46.0,-8.3
2023/01/24 20:00:00,46.3,-9.0
2023/01/24 20:10:00,47.0,-8.3
2023/01/24 20:20:00,48.1,-8.4
2023/01/24 20:30:00,49.2,-8.2
2023/01/24 20:40:00,49.4,-8.4
2023/01/24 20:50:00,49.6,-8.8
2023/01/24 21:00:00,49.3,-8.5
2023/01/24 21:10:00,49.3,-8.3
2023/01/24 21:20:00,49.3,-8.3
2023/01/24 21:30:00,48.8,-8.8
2023/01/24 21:40:00,48.9,-8.2
2023/01/24 21:50:00,49.1,-8.2
2023/01/24 22:00:00,49.2,-7.9
2023/01/24 22:10:00,50.1,-8.5
2023/01/24 22:20:00,51.4,-8.2
2023/01/24 22:30:00,52.5,-8.7
2023/01/24 22:40:00,54.5,-8.0
2023/01/24 22:50:00,55.6,-8.2
2023/01/24 23:00:00,56.6,-8.3
2023/01/24 23:10:00,57.0,-8.8
2023/01/24 23:20:00,56.8,-8.3
2023/01/24 23:30:00,56.6,-8.6
2023/01/24 23:40:00,56.7,-8.2
2023/01/24 23:50:00,56.6,-8.0
